This demonstration page uses our WeatherBlox Daily Observations layout. Learn more.

Left ArrowRight Arrow

41.12389, -100.76542

Hourly Observations for May 14, 2017

Temp ( °F °C ) Dew Point ( °F °C ) Humidity (%) Winds ( mph kmh ) Pressure ( in mb ) Visibility ( mi km ) Precip ( " mm )
12:53 am 00:53 Clear 65 18.3 52 11.1 63 63 SSE 15 24 29.57 1001 10 16 0.00 0.00
1:53 am 01:53 Clear 63 17.2 52 11.1 68 68 ESE 10 17 29.55 1001 10 16 0.00 0.00
2:53 am 02:53 Clear 62 16.7 52 11.1 70 70 SSE 9 15 29.53 1000 10 16 0.00 0.00
3:53 am 03:53 Clear 60 15.6 51 10.6 72 72 WNW 5 7 29.55 1001 10 16 0.00 0.00
4:53 am 04:53 Clear 55 12.8 51 10.6 87 87 WSW 8 13 29.58 1002 10 16 0.00 0.00
5:53 am 05:53 Clear 48 8.9 47 8.3 96 96 NW 3 6 29.61 1003 10 16 0.00 0.00
6:53 am 06:53 Sunny 47 8.3 45 7.2 93 93 WNW 7 11 29.66 1004 10 16 0.00 0.00
7:53 am 07:53 Sunny 56 13.3 52 11.1 87 87 W 7 11 29.68 1005 10 16 0.00 0.00
8:53 am 08:53 Sunny 65 18.3 54 12.2 68 68 NNW 18 30 29.70 1006 10 16 0.00 0.00
9:53 am 09:53 Sunny 69 20.6 54 12.2 59 59 N 18 30 29.72 1006 10 16 0.00 0.00
10:53 am 10:53 Sunny 73 22.8 54 12.2 51 51 NNW 16 26 29.74 1007 10 16 0.00 0.00
11:53 am 11:53 Sunny 75 23.9 55 12.8 50 50 N 16 26 29.75 1008 10 16 0.00 0.00
12:53 pm 12:53 Sunny 77 25 55 12.8 47 47 N 16 26 29.76 1008 10 16 0.00 0.00
1:53 pm 13:53 Sunny 79 26.1 54 12.2 42 42 N 16 26 29.75 1007 10 16 0.00 0.00
2:53 pm 14:53 Sunny 81 27.2 55 12.8 41 41 NE 15 24 29.74 1007 10 16 0.00 0.00
3:53 pm 15:53 Sunny 82 27.8 55 12.8 40 40 NE 14 22 29.74 1007 10 16 0.00 0.00
4:53 pm 16:53 Sunny 81 27.2 55 12.8 41 41 NNE 10 17 29.74 1007 10 16 0.00 0.00
5:53 pm 17:53 Sunny 81 27.2 55 12.8 41 41 NE 9 15 29.75 1007 10 16 0.00 0.00
6:53 pm 18:53 Sunny 80 26.7 55 12.8 42 42 ENE 10 17 29.75 1007 10 16 0.00 0.00
7:53 pm 19:53 Sunny 75 23.9 55 12.8 50 50 ENE 8 13 29.76 1008 10 16 0.00 0.00
8:53 pm 20:53 Sunny 69 20.6 55 12.8 61 61 ENE 9 15 29.75 1008 10 16 0.00 0.00
9:53 pm 21:53 Clear 66 18.9 55 12.8 68 68 E 9 15 29.76 1008 10 16 0.00 0.00
10:53 pm 22:53 Clear 61 16.1 55 12.8 81 81 SE 7 11 29.77 1008 10 16 0.00 0.00
11:53 pm 23:53 Clear 61 16.1 54 12.2 78 78 E 8 13 29.77 1008 10 16 0.00 0.00

Powered by AerisWeather